Regional Weather Roundup
Issued by NWS

Home | Current Version | Previous Version | Text Only | Print | Product List | Glossary On
Versions: 1 2 3 4 5 6 7 8 9 10 11 12 13 14 15 16 17 18 19 20 21 22 23 24 25 26 27 28 29 30 31 32 33 34 35 36 37 38 39 40 41 42 43 44 45 46 47 48 49 50
000
ASUS44 KMEG 172110
RWRTN
TENNESSEE HOURLY STATE WEATHER ROUNDUP
NATIONAL WEATHER SERVICE MEMPHIS TN
400 PM CDT WED APR 17 2024

TNZ002-004-019-021-049-052-054-088>092-172200-
WEST TENNESSEE

CITY           SKY/WX    TMP DP  RH WIND       PRES   REMARKS
MEMPHIS INTL   PTSUNNY   80  65  59 SW12G18   29.96F
NWS MEMPHIS      N/A     84 N/A N/A MISG        N/A
JACKSON        CLOUDY    82  63  52 SW10      29.95F
DYERSBURG      MOSUNNY   81  63  54 SW14G21   29.95F
COVINGTON      MOSUNNY   81  66  61 W10       29.94F
UNION CITY     SUNNY     84  57  39 SW14G22   29.90S
BOLIVAR        MOSUNNY   82  63  51 SW8       29.95F
PARIS          SUNNY     82  59  44 SW18      29.92S
HUNTINGDON     SUNNY     81  63  54 W8G17     29.92F
LEXINGTON      MOSUNNY   81  63  54 SW12G18   29.95S
SELMER         PTSUNNY   81  64  57 SW6       29.96F
SAVANNAH       PTSUNNY   81  72  74 SW10G16   29.95F
$$

TNZ008-025-027-028-033-062-065-066-172200-
NORTH MIDDLE TENNESSEE

CITY           SKY/WX    TMP DP  RH WIND       PRES   REMARKS
NASHVILLE      CLOUDY    79  63  57 SW14G23   29.95F
DICKSON        MOSUNNY   79  59  50 SW10G18   29.94R
PORTLAND       MOSUNNY   79  63  57 SW13G22   29.92S
CLARKSVILLE    MOSUNNY   83  55  38 SW15G29   29.90F
LEBANON          N/A     77  66  69 S15G23    29.92F
SMYRNA         PTSUNNY   78  64  61 S13       29.96F
MURFREESBORO   PTSUNNY   77  66  69 S13       29.95S
COOKEVILLE     PTSUNNY   72  64  78 S14       29.98F
LIVINGSTON     CLOUDY    70  61  73 SW10G21   29.97F
GALLATIN       MOSUNNY   79  66  65 SW8G18    29.96F
CROSSVILLE     PTSUNNY   65  61  87 VRB6      30.04F
ROCKWOOD       CLOUDY    61  59  94 S9G15     30.05F
$$

TNZ061-075-076-078-094-096-097-172200-
SOUTH MIDDLE TENNESSEE

CITY           SKY/WX    TMP DP  RH WIND       PRES   REMARKS
LAWRENCEBURG   PTSUNNY   75  64  69 S9        29.99F
LEWISBURG      PTSUNNY   77  66  69 S12G18    29.98S
TULLAHOMA      PTSUNNY   70  64  83 S10       30.01F
WINCHESTER     CLOUDY    68  66  94 SW8       30.04R
MCMINNVILLE    PTSUNNY   72  64  78 S9        29.99F
COLUMBIA       PTSUNNY   79  66  65 SW14G21   29.95S
SHELBYVILLE    MOSUNNY   75  66  73 S17       29.99F
$$

TNZ017-018-042-046-047-172200-
NORTHEAST TENNESSEE

CITY           SKY/WX    TMP DP  RH WIND       PRES   REMARKS
TRI CITIES     CLOUDY    75  49  39 SW20G28   30.01F
ELIZABETHTON   CLOUDY    75  54  46 W9G17     29.99F
GREENEVILLE    MOSUNNY   72  48  43 W8G20     30.02S
$$

TNZ012-013-036-069-073-074-172200-
CENTRAL EAST TENNESSEE

CITY           SKY/WX    TMP DP  RH WIND       PRES   REMARKS
KNOXVILLE      CLOUDY    63  53  70 W8        30.04F
OAK RIDGE      CLOUDY    64  55  72 MISG      30.06F
DOWNTOWN KNOXV CLOUDY    64  50  59 W8        30.04F
GATLINBURG     CLOUDY    66  52  59 NW6       30.03F
MORRISTOWN     PTSUNNY   68  46  45 W14G22    30.02F
ONEIDA         CLOUDY    64  61  88 S16G24    30.01F
$$

TNZ083-085-099-172200-
SOUTHEAST TENNESSEE

CITY           SKY/WX    TMP DP  RH WIND       PRES   REMARKS
CHATTANOOGA    CLOUDY    64  59  83 S9        30.07S
DAYTON         CLOUDY    66  63  88 S9G15     30.04F
$$

SKY/WX REPORTED AS FAIR MEANS FEW OR NO CLOUDS BELOW
12 THOUSAND FEET.




USA.gov is the U.S. government's official web portal to all federal, state and local government web resources and services.